This is the latest recevied weather packets stored in our database for station/object DB0HRC-6. If no packets are shown the sender has not sent any weather packets the latest 10 day(s).
| Time | Temp. | Humidity | Pressure | Rain* | Wind** | Luminosity | Snow |
|---|---|---|---|---|---|---|---|
| 1777509009 | 1.67° C | 62% | 1027 hPa | 0 mm | - | - | - |
| 1777508108 | 1.67° C | 65% | 1027.1 hPa | 0 mm | - | - | - |
| 1777507208 | 1.11° C | 68% | 1027 hPa | 0 mm | - | - | - |
| 1777506307 | 1.67° C | 66% | 1027.2 hPa | 0 mm | - | - | - |
| 1777505407 | 1.67° C | 65% | 1027.3 hPa | 0 mm | - | - | - |
| 1777504509 | 1.67° C | 68% | 1027.2 hPa | 0 mm | - | - | - |
| 1777503608 | 1.67° C | 70% | 1027.3 hPa | 0 mm | - | - | - |
| 1777502707 | 1.67° C | 68% | 1027.3 hPa | 0 mm | - | - | - |
| 1777501808 | 2.22° C | 67% | 1027.3 hPa | 0 mm | - | - | - |
| 1777500907 | 2.78° C | 63% | 1027.2 hPa | 0 mm | - | - | - |
| 1777500007 | 3.33° C | 61% | 1027 hPa | 0 mm | - | - | - |
| 1777499107 | 3.33° C | 61% | 1026.7 hPa | 0 mm | - | - | - |
| 1777498207 | 3.33° C | 61% | 1026.6 hPa | 0 mm | - | - | - |
| 1777497308 | 2.78° C | 62% | 1026.8 hPa | 0 mm | - | - | - |
| 1777496410 | 3.33° C | 64% | 1026.6 hPa | 0 mm | - | - | - |
| 1777495510 | 3.89° C | 61% | 1026.4 hPa | 0 mm | - | - | - |
| 1777494607 | 3.89° C | 61% | 1026.1 hPa | 0 mm | - | - | - |
| 1777493708 | 3.89° C | 60% | 1026.2 hPa | 0 mm | - | - | - |
| 1777492809 | 4.44° C | 61% | 1026.2 hPa | 0 mm | - | - | - |
| 1777491907 | 5° C | 58% | 1026.1 hPa | 0 mm | - | - | - |
| 1777491008 | 5° C | 59% | 1025.9 hPa | 0 mm | - | - | - |
| 1777490108 | 5.56° C | 58% | 1025.9 hPa | 0 mm | - | - | - |
| 1777489207 | 6.11° C | 56% | 1025.6 hPa | 0 mm | - | - | - |
| 1777488307 | 6.67° C | 53% | 1025.5 hPa | 0 mm | - | - | - |
| 1777487407 | 7.78° C | 54% | 1025.5 hPa | 0 mm | - | - | - |
* Rain latest hour (hover to see other rain measurements)
** Current wind speed in m/s (hover to see current wind gust speed)